Weather History for Palm Springs, CA

Change the Weather History Date:

Tuesday, November 6, 2012

  Actual Average Record
Temperature  
Mean Temperature 81 °F 68 °F  
Max Temperature 93 °F 81 °F 98 °F (1991)
Min Temperature 68 °F 56 °F 36 °F (1936)
Degree Days  
Heating Degree Days 0 1  
Month to date heating degree days 0 6  
Since 1 July heating degree days 0 10  
Cooling Degree Days 16 5  
Month to date cooling degree days 70 32  
Year to date cooling degree days 4659 4094  
Growing Degree Days 31 (Base 50)    
Moisture  
Dew Point 34 °F    
Average Humidity 18    
Maximum Humidity 23    
Minimum Humidity 13    
Precipitation  
Precipitation 0.00 in 0.01 in 0.25 in (1960)
Month to date precipitation 0.00 0.07  
Year to date precipitation 1.82 4.40  
Since 1 July precipitation 1.03 1.46  
Snow  
Snow 0.00 in - - ()
Month to date snowfall 0.0  
Year to date snowfall 0.0  
Since 1 July snowfall 0.0  
Snow Depth 0.00 in    
Sea Level Pressure  
Sea Level Pressure 29.98 in    
Wind  
Wind Speed 6 mph (NW)    
Max Wind Speed 12 mph    
Max Gust Speed 14 mph    
Visibility 10 miles    
Events      
T = Trace of Precipitation, MM = Missing Value Source: NWS Daily Summary

Daily Weather History Graph

Daily Weather History Graph

Search for Another Location

Airport:

Trip Planner

Search our weather history database for the weather conditions in past years. The results will help you decide how hot, cold, wet, or windy it might be!

Date:

Astronomy

Nov. 06, 2012 Rise Set
Actual Time 6:10 AM PST 4:48 PM PST
Civil Twilight 5:44 AM PST 5:14 PM PST
Nautical Twilight 5:14 AM PST 5:44 PM PST
Astronomical Twilight 4:45 AM PST 6:13 PM PST
Moon 11:28 PM PST (11/6) 12:07 PM PST (11/6)
Length of Visible Light 11h 30m
Length of Day
10h 38m
Waning Gibbous, 52% of the Moon is Illuminated
Nov 6
Waning Gibbous
Nov 6
Last Quarter
Nov 13
New
Nov 20
First Quarter
Nov 28
Full

Hourly Weather History & Observations

Time (PST) Temp. Dew Point Humidity Pressure Visibility Wind Dir Wind Speed Gust Speed Precip Events Conditions
12:53 AM 72.0 °F 28.0 °F 20% 29.99 in 10.0 mi NW 9.2 mph - N/A   Clear
1:53 AM 72.0 °F 28.0 °F 20% 29.99 in 10.0 mi NW 5.8 mph - N/A   Clear
2:53 AM 71.1 °F 28.0 °F 20% 29.99 in 10.0 mi NW 9.2 mph - N/A   Clear
3:53 AM 70.0 °F 28.0 °F 21% 29.99 in 10.0 mi NW 6.9 mph - N/A   Clear
4:53 AM 70.0 °F 28.0 °F 21% 30.00 in 10.0 mi NNW 9.2 mph - N/A   Clear
5:53 AM 72.0 °F 28.0 °F 20% 30.01 in 10.0 mi NW 8.1 mph - N/A   Clear
6:53 AM 69.1 °F 30.0 °F 23% 30.03 in 10.0 mi NNW 8.1 mph - N/A   Clear
7:53 AM 75.9 °F 30.9 °F 19% 30.04 in 10.0 mi NW 3.5 mph - N/A   Clear
8:53 AM 84.0 °F 33.1 °F 16% 30.03 in 10.0 mi North 3.5 mph - N/A   Clear
9:53 AM 88.0 °F 30.9 °F 13% 30.03 in 10.0 mi Calm Calm - N/A   Clear
10:53 AM 90.0 °F 36.0 °F 15% 30.01 in 10.0 mi SSE 4.6 mph - N/A   Clear
11:53 AM 91.9 °F 34.0 °F 13% 29.98 in 10.0 mi ESE 5.8 mph - N/A   Clear
12:53 PM 91.9 °F 34.0 °F 13% 29.95 in 10.0 mi Calm Calm - N/A   Clear
1:53 PM 91.9 °F 34.0 °F 13% 29.93 in 10.0 mi SE 5.8 mph - N/A   Clear
2:53 PM 93.0 °F 35.1 °F 13% 29.93 in 10.0 mi ESE 6.9 mph - N/A   Clear
3:53 PM 91.0 °F 35.1 °F 14% 29.92 in 10.0 mi East 6.9 mph - N/A   Clear
4:53 PM 87.1 °F 39.9 °F 19% 29.93 in 10.0 mi ESE 3.5 mph - N/A   Clear
5:53 PM 82.9 °F 41.0 °F 23% 29.94 in 10.0 mi West 3.5 mph - N/A   Clear
6:53 PM 78.1 °F 39.9 °F 25% 29.95 in 10.0 mi Calm Calm - N/A   Clear
7:53 PM 80.1 °F 35.1 °F 20% 29.96 in 10.0 mi West 4.6 mph - N/A   Clear
8:53 PM 79.0 °F 37.0 °F 22% 29.97 in 10.0 mi NW 5.8 mph - N/A   Clear
9:53 PM 72.0 °F 42.1 °F 34% 29.98 in 10.0 mi Calm Calm - N/A   Clear
10:53 PM 75.9 °F 32.0 °F 20% 29.97 in 10.0 mi WNW 3.5 mph - N/A   Clear
11:53 PM 69.1 °F 41.0 °F 36% 29.97 in 10.0 mi West 4.6 mph - N/A   Clear